| time (UTC) | temp C | wind direction | speed KPH | gust KPH | rain 1hr cm | rain 24hr cm | rain mn cm | humidity % | barometer mb |
| 20260509173100 | 11 | 225 | 11.3 | 20.9 | 0.03 | 0.25 | 0.25 | 83 | 1011.1 |
| 20260509171600 | 12 | 248 | 14.5 | 24.1 | 0.03 | 0.25 | 0.25 | 81 | 1010.8 |
| 20260509170109 | 13 | 252 | 9.7 | 19.3 | 0.00 | 0.20 | 0.20 | 78 | 1010.9 |
| 20260509164600 | 14 | 270 | 11.3 | 19.3 | 0.00 | 0.20 | 0.20 | 73 | 1010.5 |
| 20260509163101 | 15 | 160 | 9.7 | 24.1 | 0.00 | 0.20 | 0.20 | 71 | 1010.3 |
| 20260509161602 | 14 | 248 | 3.2 | 12.9 | 0.00 | 0.20 | 0.20 | 74 | 1010.2 |
| 20260509160058 | 13 | 157 | 3.2 | 16.1 | 0.03 | 0.20 | 0.20 | 79 | 1010.3 |
| 20260509154600 | 12 | 120 | 1.6 | 8.0 | 0.05 | 0.23 | 0.20 | 83 | 1010.7 |
| 20260509153117 | 11 | 118 | 3.2 | 6.4 | 0.10 | 0.23 | 0.20 | 88 | 1011.1 |
| 20260509151600 | 10 | 147 | 1.6 | 11.3 | 0.20 | 0.23 | 0.20 | 90 | 1011.6 |
| 20260509150058 | 10 | 283 | 9.7 | 32.2 | 0.18 | 0.18 | 0.18 | 89 | 1011.9 |
| 20260509144600 | 11 | 235 | 11.3 | 29.0 | 0.15 | 0.46 | 0.15 | 88 | 1011.7 |
| 20260509143059 | 12 | 234 | 29.0 | 49.9 | 0.08 | 0.38 | 0.08 | 81 | 1011.0 |
| 20260509141557 | 16 | 243 | 9.7 | 25.7 | 0.00 | 0.28 | 0.00 | 54 | 1010.3 |
| 20260509134557 | 17 | 130 | 6.4 | 25.7 | 0.00 | 0.41 | 0.00 | 52 | 1010.2 |
| 20260509133100 | 17 | 234 | 9.7 | 30.6 | 0.00 | 0.41 | 0.00 | 54 | 1010.2 |
| 20260509131600 | 17 | 188 | 11.3 | 29.0 | 0.00 | 0.41 | 0.00 | 54 | 1010.4 |
| 20260509130108 | 16 | 236 | 12.9 | 24.1 | 0.00 | 0.41 | 0.00 | 49 | 1010.6 |
| 20260509124601 | 16 | 120 | 11.3 | 37.0 | 0.00 | 0.46 | 0.00 | 54 | 1010.7 |
| 20260509123058 | 16 | 243 | 12.9 | 30.6 | 0.00 | 0.46 | 0.00 | 55 | 1010.8 |
| 20260509121625 | 16 | 281 | 9.7 | 24.1 | 0.00 | 0.46 | 0.00 | 56 | 1010.7 |
| 20260509120059 | 16 | 155 | 4.8 | 20.9 | 0.00 | 0.46 | 0.00 | 58 | 1010.6 |
| 20260509114604 | 15 | 188 | 6.4 | 20.9 | 0.00 | 0.46 | 0.00 | 61 | 1010.7 |
| 20260509113101 | 15 | 240 | 4.8 | 14.5 | 0.00 | 0.46 | 0.00 | 62 | 1010.9 |
| 20260509111559 | 15 | 247 | 3.2 | 14.5 | 0.00 | 0.46 | 0.00 | 64 | 1011.1 |
| 20260509110108 | 14 | 288 | 8.0 | 20.9 | 0.00 | 0.46 | 0.00 | 68 | 1011.2 |
| 20260509104559 | 15 | 0 | 4.8 | 12.9 | 0.00 | 0.46 | 0.00 | 65 | 1011.3 |
| 20260509103103 | 14 | 236 | 4.8 | 11.3 | 0.00 | 0.46 | 0.00 | 67 | 1011.3 |
| 20260509101619 | 13 | 0 | 3.2 | 9.7 | 0.00 | 0.46 | 0.00 | 69 | 1011.1 |
| 20260509100058 | 13 | 228 | 3.2 | 9.7 | 0.00 | 0.46 | 0.00 | 72 | 1011.2 |
| 20260509094609 | 12 | 157 | 3.2 | 9.7 | 0.00 | 0.46 | 0.00 | 73 | 1011.3 |
| 20260509093100 | 12 | 136 | 4.8 | 16.1 | 0.00 | 0.46 | 0.00 | 75 | 1011.3 |
| 20260509091607 | 12 | 272 | 3.2 | 9.7 | 0.00 | 0.46 | 0.00 | 76 | 1011.4 |
| 20260509090106 | 11 | 141 | 1.6 | 11.3 | 0.00 | 0.46 | 0.00 | 77 | 1011.1 |
| 20260509084603 | 11 | 252 | 6.4 | 12.9 | 0.00 | 0.46 | 0.00 | 80 | 1010.9 |
| 20260509083108 | 10 | 246 | 3.2 | 11.3 | 0.00 | 0.46 | 0.00 | 81 | 1010.8 |
| 20260509081559 | 10 | 258 | 3.2 | 11.3 | 0.00 | 0.46 | 0.00 | 83 | 1010.4 |
| 20260509080100 | 10 | 117 | 1.6 | 14.5 | 0.00 | 0.46 | 0.00 | 84 | 1010.6 |
| 20260509074600 | 10 | 102 | 1.6 | 12.9 | 0.00 | 0.46 | 0.00 | 83 | 1010.8 |
| 20260509073057 | 10 | 117 | 3.2 | 17.7 | 0.00 | 0.46 | 0.00 | 84 | 1010.9 |
| 20260509071604 | 10 | 247 | 6.4 | 20.9 | 0.00 | 0.46 | 0.00 | 85 | 1011.2 |
| 20260509070100 | 9 | 182 | 1.6 | 16.1 | 0.00 | 0.46 | 0.00 | 87 | 1011.3 |
| 20260509064610 | 9 | 153 | 0.0 | 9.7 | 0.00 | 0.46 | 0.00 | 88 | 1011.7 |
| 20260509063106 | 9 | 118 | 0.0 | 3.2 | 0.00 | 0.46 | 0.00 | 89 | 1011.6 |
| 20260509061610 | 8 | 56 | 3.2 | 6.4 | 0.00 | 0.46 | 0.00 | 89 | 1011.8 |
| 20260509060109 | 8 | 0 | 0.0 | 1.6 | 0.00 | 0.46 | 0.00 | 89 | 1011.8 |
| 20260509054613 | 8 | 0 | 0.0 | 3.2 | 0.00 | 0.46 | 0.00 | 88 | 1011.7 |
| 20260509053135 | 8 | 245 | 1.6 | 12.9 | 0.00 | 0.46 | 0.00 | 88 | 1011.4 |
| 20260509051606 | 9 | 131 | 1.6 | 9.7 | 0.00 | 0.46 | 0.00 | 86 | 1010.9 |
| 20260509050107 | 9 | 102 | 1.6 | 4.8 | 0.00 | 0.46 | 0.00 | 87 | 1010.6 |
| 20260509044659 | 8 | 0 | 1.6 | 8.0 | 0.00 | 0.46 | 0.00 | 88 | 1010.9 |
| 20260509043140 | 8 | 0 | 0.0 | 3.2 | 0.00 | 0.46 | 0.00 | 88 | 1011.0 |
| 20260509041605 | 9 | 0 | 0.0 | 1.6 | 0.00 | 0.46 | 0.00 | 88 | 1010.9 |
| 20260509034600 | 9 | 259 | 0.0 | 3.2 | 0.00 | 0.46 | 0.00 | 88 | 1011.4 |
| 20260509033111 | 9 | 179 | 0.0 | 3.2 | 0.00 | 0.46 | 0.00 | 89 | 1011.5 |
| 20260509031612 | 9 | 0 | 0.0 | 4.8 | 0.00 | 0.46 | 0.00 | 89 | 1011.3 |
| 20260509030114 | 9 | 0 | 0.0 | 6.4 | 0.00 | 0.46 | 0.00 | 89 | 1011.4 |
| 20260509024603 | 9 | 66 | 0.0 | 4.8 | 0.00 | 0.46 | 0.00 | 89 | 1011.5 |
| 20260509023100 | 9 | 42 | 0.0 | 9.7 | 0.00 | 0.46 | 0.00 | 89 | 1011.5 |
| 20260509021602 | 9 | 125 | 0.0 | 8.0 | 0.00 | 0.46 | 0.00 | 89 | 1011.7 |
| 20260509020107 | 10 | 124 | 0.0 | 9.7 | 0.00 | 0.46 | 0.00 | 89 | 1011.5 |
| 20260509014600 | 10 | 0 | 1.6 | 6.4 | 0.00 | 0.46 | 0.00 | 89 | 1011.8 |
| 20260509013101 | 10 | 108 | 1.6 | 8.0 | 0.00 | 0.46 | 0.00 | 89 | 1012.1 |
| 20260509011601 | 9 | 143 | 1.6 | 9.7 | 0.00 | 0.46 | 0.00 | 90 | 1012.1 |
| 20260509010057 | 9 | 91 | 0.0 | 3.2 | 0.00 | 0.46 | 0.00 | 90 | 1012.4 |
| 20260509004608 | 9 | 0 | 0.0 | 1.6 | 0.00 | 0.46 | 0.00 | 89 | 1012.6 |
| 20260509003101 | 9 | 0 | 0.0 | 4.8 | 0.00 | 0.46 | 0.00 | 89 | 1012.6 |
| 20260509001557 | 9 | 169 | 1.6 | 8.0 | 0.00 | 0.46 | 0.00 | 90 | 1012.5 |
| 20260509000105 | 9 | 152 | 0.0 | 9.7 | 0.00 | 0.46 | 0.00 | 90 | 1012.5 |
| 20260508234558 | 9 | 0 | 0.0 | 4.8 | 0.00 | 0.46 | 0.00 | 91 | 1012.7 |
| 20260508233100 | 9 | 0 | 0.0 | 4.8 | 0.00 | 0.46 | 0.00 | 91 | 1012.8 |
| 20260508231559 | 8 | 0 | 0.0 | 1.6 | 0.00 | 0.46 | 0.00 | 92 | 1012.8 |
| 20260508230058 | 8 | 116 | 0.0 | 1.6 | 0.00 | 0.46 | 0.00 | 92 | 1012.9 |
| 20260508224635 | 8 | 129 | 1.6 | 8.0 | 0.00 | 0.46 | 0.00 | 92 | 1012.9 |
| 20260508223101 | 8 | 76 | 3.2 | 6.4 | 0.00 | 0.46 | 0.00 | 93 | 1013.1 |
| 20260508221559 | 8 | 94 | 0.0 | 3.2 | 0.00 | 0.46 | 0.00 | 93 | 1013.0 |
| 20260508220058 | 8 | 117 | 1.6 | 4.8 | 0.00 | 0.46 | 0.00 | 93 | 1013.1 |
| 20260508214600 | 8 | 122 | 0.0 | 1.6 | 0.00 | 0.46 | 0.46 | 93 | 1013.1 |
| 20260508213057 | 8 | 79 | 1.6 | 3.2 | 0.00 | 0.46 | 0.46 | 92 | 1013.1 |
| 20260508211602 | 8 | 0 | 0.0 | 4.8 | 0.00 | 0.46 | 0.46 | 92 | 1013.1 |
| 20260508210100 | 8 | 0 | 0.0 | 0.0 | 0.00 | 0.46 | 0.46 | 92 | 1012.9 |
| 20260508204600 | 9 | 136 | 1.6 | 3.2 | 0.00 | 0.46 | 0.46 | 91 | 1013.0 |
| 20260508203108 | 9 | 0 | 0.0 | 1.6 | 0.00 | 0.46 | 0.46 | 91 | 1012.8 |
| 20260508201605 | 10 | 113 | 0.0 | 1.6 | 0.00 | 0.46 | 0.46 | 91 | 1012.7 |
| 20260508200059 | 10 | 0 | 0.0 | 1.6 | 0.00 | 0.46 | 0.46 | 90 | 1012.6 |
| 20260508194559 | 10 | 0 | 0.0 | 1.6 | 0.00 | 0.46 | 0.46 | 90 | 1012.4 |
| 20260508193103 | 10 | 0 | 0.0 | 1.6 | 0.00 | 0.46 | 0.46 | 89 | 1012.4 |
| 20260508191601 | 10 | 0 | 0.0 | 0.0 | 0.00 | 0.46 | 0.46 | 88 | 1012.2 |
| 20260508190100 | 11 | 0 | 0.0 | 3.2 | 0.00 | 0.46 | 0.46 | 86 | 1012.1 |
| 20260508184601 | 11 | 59 | 1.6 | 3.2 | 0.00 | 0.46 | 0.46 | 84 | 1011.8 |
| 20260508183100 | 11 | 0 | 0.0 | 3.2 | 0.00 | 0.46 | 0.46 | 85 | 1011.9 |
| 20260508181600 | 11 | 108 | 0.0 | 3.2 | 0.00 | 0.46 | 0.46 | 83 | 1011.9 |
| 20260508174601 | 11 | 0 | 0.0 | 1.6 | 0.00 | 0.46 | 0.46 | 84 | 1011.7 |